{"data":{"norad_id":55919,"intl_designator":"2023-037F","name":"STARLINK-5871","alt_names":[],"object_type":"PAYLOAD","status":"ACTIVE","operator":null,"country":"US","launch_date":"2023-03-17","launch_site_code":"AFWTR","launch_vehicle":null,"mission":null,"orbit_class":"UNKNOWN","rcs_meters":null,"size_class":null,"mass_kg":null,"dimensions":null,"purposes":["comms"],"wikipedia_slug":null,"has_3d_model":false,"image_url":null,"decayed_at":null,"tle_current":{"epoch":"2026-05-25T04:21:24.073632Z","epoch_age_seconds":56591,"freshness":"FRESH","line1":"1 55919U 23037F   26145.18152863  .00000449  00000+0  45404-4 0  9993","line2":"2 55919  69.9991 111.6448 0003645 267.8758  92.1983 14.98331141174942","mean_motion":14.98331141,"eccentricity":0.0003645,"inclination_deg":69.9991,"raan_deg":111.6448,"arg_perigee_deg":267.8758,"mean_anomaly_deg":92.1983,"bstar":4.5404e-5,"rev_number":17494,"period_min":96.106925938877,"perigee_km":569.51901847565,"apogee_km":574.58570652091,"semimajor_km":6950.1893624983,"source":"CELESTRAK","updated_at":"2026-05-25T13:38:17.889657Z"}}}